Location: Unspecified
(0.0000°N, 0.0000°E)
Time: 19:12:50
(UTC+00:00)

COSMOS-2409 - Pass Details

Date: 13 June 2023
Orbit: 1474 x 1494 km, 82.5° (Epoch: 27 September)

Event Time Altitude Azimuth Distance (km) Brightness Sun altitude
Exits shadow 02:36:15 30° 358° (N) 2,430 8.6 -45.5°
Drops below altitude 10° 02:39:58 10° 1° (N) 3,629 9.7 -44.8°
Sets 02:42:50 0° 2° (N) 4,606 10.4 -44.2°
